Weather History for LICF - November, 2012

Change the Weather History Date:

Saturday, November 3, 2012

  Actual Average (LICR) Record (LICR)
Temperature  
Mean Temperature 67 °F -  
Max Temperature 72 °F 65 °F 80 °F (2004)
Min Temperature 62 °F 56 °F 50 °F (2006)
Cooling Degree Days 2    
Growing Degree Days 17 (Base 50)    
Moisture  
Dew Point 54 °F    
Average Humidity 65    
Maximum Humidity 82    
Minimum Humidity 38    
Precipitation  
Precipitation 0.00 in 0.14 in - ()
Sea Level Pressure  
Sea Level Pressure 30.04 in    
Wind  
Wind Speed 4 mph ()    
Max Wind Speed 8 mph    
Max Gust Speed -    
Visibility 6.6 miles    
Events      
Averages and records for this station are not official NWS values.
T = Trace of Precipitation, MM = Missing Value Source: Averaged Metar Reports

Daily Weather History Graph

Daily Weather History Graph

Search for Another Location

Airport or City:

Trip Planner

Search our weather history database for the weather conditions in past years. The results will help you decide how hot, cold, wet, or windy it might be!

Date:

Astronomy

Nov. 03, 2012 Rise Set
Actual Time 6:26 AM CET 4:56 PM CET
Civil Twilight 5:58 AM CET 5:23 PM CET
Nautical Twilight 5:27 AM CET 5:54 PM CET
Astronomical Twilight 4:56 AM CET 6:25 PM CET
Moon 8:22 PM CET 10:16 AM CET
Length of Visible Light 11h 24m
Length of Day
10h 29m
Waning Gibbous, 82% of the Moon is Illuminated
Nov 3
Waning Gibbous
Nov 7
Last Quarter
Nov 13
New
Nov 20
First Quarter
Nov 28
Full

Hourly Weather History & Observations

Time (CET) Temp. Dew Point Humidity Pressure Visibility Wind Dir Wind Speed Gust Speed Precip Events Conditions
12:55 AM 64.4 °F 55.4 °F 73% 30.01 in 6.2 mi NW 6.9 mph - N/A   Partly Cloudy
1:00 AM 64 °F 55 °F 64% 30.02 in 6 mi NW 6.9 mph - -   Scattered Clouds
1:55 AM 64.4 °F 53.6 °F 68% 30.01 in 6.2 mi NW 5.8 mph - N/A   Scattered Clouds
2:55 AM 64.4 °F 53.6 °F 68% 30.01 in 6.2 mi NW 8.1 mph - N/A   Scattered Clouds
3:55 AM 64.4 °F 55.4 °F 73% 30.01 in 6.2 mi NW 5.8 mph - N/A   Scattered Clouds
4:55 AM 64.4 °F 55.4 °F 73% 30.01 in 6.2 mi NW 2.3 mph - N/A   Scattered Clouds
5:55 AM 64.4 °F 55.4 °F 73% 30.01 in 6.2 mi NNW 1.2 mph - N/A   Scattered Clouds
6:55 AM 62.6 °F 55.4 °F 77% 30.04 in 6.2 mi NW 3.5 mph - N/A   Scattered Clouds
7:00 AM 63 °F 56 °F 70% 30.05 in 6 mi NW 3.5 mph - -   Partly Cloudy
7:55 AM 62.6 °F 57.2 °F 82% 30.04 in 6.2 mi NNW 2.3 mph - N/A   Scattered Clouds
8:55 AM 68.0 °F 57.2 °F 68% 30.06 in 6.2 mi East 4.6 mph - N/A   Scattered Clouds
9:55 AM 68.0 °F 55.4 °F 64% 30.06 in 6.2 mi Variable 1.2 mph - N/A   Scattered Clouds
10:55 AM 69.8 °F 53.6 °F 56% 30.06 in 6.2 mi East 5.8 mph - N/A   Partly Cloudy
11:55 AM 71.6 °F 53.6 °F 53% 30.06 in 6.2 mi East 4.6 mph - N/A   Partly Cloudy
12:55 PM 71.6 °F 51.8 °F 50% 30.04 in 6.2 mi East 5.8 mph - N/A   Partly Cloudy
1:00 PM 72 °F 52 °F 38% 30.06 in 12 mi East 5.8 mph - -   Scattered Clouds
1:55 PM 71.6 °F 50.0 °F 46% 30.04 in 6.2 mi ENE 4.6 mph - N/A   Scattered Clouds
2:55 PM 69.8 °F 50.0 °F 49% 30.04 in 6.2 mi ENE 3.5 mph - N/A   Scattered Clouds
3:55 PM 69.8 °F 53.6 °F 56% 30.04 in 6.2 mi NNE 2.3 mph - N/A   Scattered Clouds
4:55 PM 68.0 °F 55.4 °F 64% 30.04 in 6.2 mi NNE 1.2 mph - N/A   Partly Cloudy
5:55 PM 66.2 °F 55.4 °F 68% 30.04 in 6.2 mi NW 3.5 mph - N/A   Partly Cloudy
6:55 PM 66.2 °F 55.4 °F 68% 30.04 in 6.2 mi NW 2.3 mph - N/A   Partly Cloudy
7:00 PM 66 °F 55 °F 60% 30.06 in 12 mi NW 2.3 mph - -   Scattered Clouds
7:55 PM 64.4 °F 55.4 °F 73% 30.04 in 6.2 mi Calm Calm - N/A   Partly Cloudy
8:55 PM 64.4 °F 55.4 °F 73% 30.04 in 6.2 mi Calm Calm - N/A   Partly Cloudy
9:55 PM 62.6 °F 55.4 °F 77% 30.06 in 6.2 mi Calm Calm - N/A   Partly Cloudy
10:55 PM 62.6 °F 55.4 °F 77% 30.06 in 6.2 mi Calm Calm - N/A   Partly Cloudy
11:55 PM 62.6 °F 53.6 °F 72% 30.06 in 6.2 mi Calm Calm - N/A   Partly Cloudy